Home   Weather   Qatif   Past weeks

Flag for Saudi Arabia Past Weather in Qatif, Saudi Arabia — Yesterday and Last 2 Weeks

Now
86 °F

Clear.


Feels Like: 86 °F
Forecast: 75 / 100 °F
Wind: 6 mph from North

Location: King Fahd International Airport

Current Time: Sep 26, 2016 at 8:30:28 PM

Latest Report: Sep 26, 2016 at 8:00 PM


Visibility: 10 mi

Pressure: 29.74 "Hg

Humidity: 43%

Dew Point: 61 °F

Location of QatifLocation

Past Weather in Qatif — Graph

°F

Qatif Temperature Yesterday

Maximum temperature yesterday: 100 °F (at 1:00 PM)
Minimum temperature yesterday: 79 °F (at 6:00 AM)
Average temperature yesterday: 89 °F

High & Low Weather Summary for the Past Weeks

 TemperatureHumidityPressure
High113 °F (Sep 17, 2:00 PM)79% (Sep 23, 2:00 AM)29.83 "Hg (Sep 23, 2:00 AM)
Low73 °F (Sep 23, 4:00 AM)7% (Sep 17, 1:00 PM)29.56 "Hg (Sep 12, 2:00 PM)
Average91 °F35%29.68 "Hg
* Reported Sep 11 7:00 PM — Sep 26 7:00 PM, Qatif, Weather by CustomWeather, © 2016

Note: Actual official high and low records may vary slightly from our data, if they occured in-between our weather recording intervals... More about our weather records

Advertising

Qatif Weather History for the Previous 24 Hours

Scroll right to see more
 ConditionsComfort  
Time TempWeatherWind HumidityBarometerVisibility
7:00 PM
Mon, Sep 26
88 °FClear.5 mph33%29.74 "Hg10 mi
6:00 PM93 °FClear.8 mph24%29.71 "Hg10 mi
5:00 PM97 °FSunny.15 mph17%29.71 "Hg10 mi
4:00 PM99 °FSunny.20 mph13%29.71 "Hg10 mi
3:00 PM100 °FSunny.18 mph21%29.71 "Hg10 mi
2:00 PM102 °FSunny.17 mph16%29.71 "Hg10 mi
1:00 PM102 °FSunny.13 mph16%29.71 "Hg10 mi
12:00 PM100 °FSunny.13 mph18%29.74 "Hg5 mi
11:00 AM99 °FSunny.14 mph21%29.77 "Hg5 mi
10:00 AM95 °FSunny.13 mph26%29.83 "Hg5 mi
9:00 AM91 °FSunny.13 mph24%29.77 "Hg5 mi
8:00 AM86 °FSunny.14 mph22%29.77 "Hg10 mi
7:00 AM81 °FSunny.10 mph26%29.74 "Hg10 mi
6:00 AM75 °FSunny.10 mph36%29.74 "Hg10 mi
5:00 AM75 °FClear.9 mph39%29.71 "Hg10 mi
4:00 AM77 °FClear.9 mph36%29.71 "Hg10 mi
3:00 AM81 °FClear.9 mph34%29.68 "Hg10 mi
2:00 AM77 °FClear.6 mph42%29.68 "Hg10 mi
1:00 AM81 °FClear.10 mph37%29.68 "Hg10 mi
12:00 AM81 °FClear.10 mph37%29.68 "Hg10 mi
11:00 PM
Sun, Sep 25
81 °FClear.9 mph37%29.71 "Hg10 mi
10:00 PM84 °FClear.8 mph35%29.71 "Hg10 mi
9:00 PM84 °FClear.7 mph31%29.71 "Hg10 mi
8:00 PM88 °FClear.9 mph24%29.71 "Hg10 mi
Weather by CustomWeather, © 2016

See weather overviewHow to use our weather pages